Time,TemperatureF,DewpointF,PressureIn,WindDirection,WindDirectionDegrees,WindSpeedMPH,WindSpeedGustMPH,Humidity,HourlyPrecipIn,Conditions,Clouds,dailyrainin,SoftwareType,DateUTC
2013-06-07 00:08:00,78.1,74.0,29.82,SW,225,2.0,11.0,87,0.00,,,0.00,weatherlink.com 1.10,2013-06-07 04:08:00,
2013-06-07 00:23:00,78.1,74.0,29.82,WSW,239,1.0,7.0,88,0.00,,,0.00,weatherlink.com 1.10,2013-06-07 04:23:00,
2013-06-07 00:38:00,78.1,74.0,29.82,WSW,248,5.0,8.0,88,0.00,,,0.00,weatherlink.com 1.10,2013-06-07 04:38:00,
2013-06-07 00:53:00,78.0,74.0,29.82,WSW,253,5.0,9.0,88,0.00,,,0.00,weatherlink.com 1.10,2013-06-07 04:53:00,
2013-06-07 01:08:00,77.7,74.0,29.82,WNW,288,2.0,8.0,87,0.00,,,0.00,weatherlink.com 1.10,2013-06-07 05:08:00,
2013-06-07 01:23:00,77.6,74.0,29.81,NNW,328,2.0,6.0,87,0.00,,,0.00,weatherlink.com 1.10,2013-06-07 05:23:00,
2013-06-07 01:38:00,77.4,73.0,29.81,WSW,253,1.0,6.0,87,0.00,,,0.00,weatherlink.com 1.10,2013-06-07 05:38:00,
2013-06-07 01:53:00,77.5,74.0,29.81,NW,320,6.0,9.0,88,0.00,,,0.00,weatherlink.com 1.10,2013-06-07 05:53:00,
2013-06-07 02:08:00,77.3,74.0,29.81,WSW,250,1.0,6.0,88,0.00,,,0.00,weatherlink.com 1.10,2013-06-07 06:08:00,
2013-06-07 02:23:00,77.3,74.0,29.81,WNW,288,3.0,9.0,89,0.00,,,0.00,weatherlink.com 1.10,2013-06-07 06:23:00,
2013-06-07 02:38:00,77.1,73.0,29.80,WNW,295,3.0,6.0,88,0.00,,,0.00,weatherlink.com 1.10,2013-06-07 06:38:00,
2013-06-07 02:53:00,77.1,74.0,29.80,SW,228,1.0,4.0,89,0.00,,,0.00,weatherlink.com 1.10,2013-06-07 06:53:00,
2013-06-07 03:08:00,77.1,74.0,29.81,WSW,253,0.0,5.0,89,0.00,,,0.00,weatherlink.com 1.10,2013-06-07 07:08:00,
2013-06-07 03:23:00,77.0,74.0,29.80,WNW,283,1.0,5.0,89,0.00,,,0.00,weatherlink.com 1.10,2013-06-07 07:23:00,
2013-06-07 03:39:00,76.8,73.0,29.80,WSW,243,1.0,5.0,89,0.00,,,0.00,weatherlink.com 1.10,2013-06-07 07:39:00,
2013-06-07 03:54:00,76.8,74.0,29.80,NW,305,2.0,5.0,90,0.00,,,0.00,weatherlink.com 1.10,2013-06-07 07:54:00,
2013-06-07 04:09:00,76.9,74.0,29.79,NW,305,2.0,5.0,89,0.00,,,0.00,weatherlink.com 1.10,2013-06-07 08:09:00,
2013-06-07 04:24:00,76.6,73.0,29.80,SW,236,2.0,5.0,89,0.00,,,0.00,weatherlink.com 1.10,2013-06-07 08:24:00,
2013-06-07 04:39:00,76.6,73.0,29.80,WNW,293,1.0,4.0,89,0.00,,,0.00,weatherlink.com 1.10,2013-06-07 08:39:00,
2013-06-07 04:54:00,76.6,74.0,29.81,West,259,1.0,5.0,90,0.00,,,0.00,weatherlink.com 1.10,2013-06-07 08:54:00,
2013-06-07 05:09:00,76.7,74.0,29.81,West,276,2.0,7.0,90,0.00,,,0.00,weatherlink.com 1.10,2013-06-07 09:09:00,
2013-06-07 05:24:00,76.5,74.0,29.82,West,276,1.0,5.0,90,0.00,,,0.00,weatherlink.com 1.10,2013-06-07 09:24:00,
2013-06-07 05:39:00,76.6,74.0,29.82,SW,236,1.0,4.0,90,0.00,,,0.00,weatherlink.com 1.10,2013-06-07 09:39:00,
2013-06-07 05:54:00,76.6,74.0,29.84,West,259,0.0,4.0,90,0.00,,,0.00,weatherlink.com 1.10,2013-06-07 09:54:00,
2013-06-07 06:09:00,76.7,74.0,29.84,West,266,0.0,5.0,90,0.00,,,0.00,weatherlink.com 1.10,2013-06-07 10:09:00,
2013-06-07 06:24:00,76.6,74.0,29.85,SW,218,2.0,4.0,90,0.00,,,0.00,weatherlink.com 1.10,2013-06-07 10:24:00,
2013-06-07 06:39:00,76.7,74.0,29.86,SW,233,0.0,4.0,90,0.00,,,0.00,weatherlink.com 1.10,2013-06-07 10:39:00,
2013-06-07 06:54:00,76.7,74.0,29.87,SSW,193,0.0,2.0,91,0.00,,,0.00,weatherlink.com 1.10,2013-06-07 10:54:00,
2013-06-07 07:09:00,76.8,74.0,29.87,WSW,246,1.0,3.0,91,0.00,,,0.00,weatherlink.com 1.10,2013-06-07 11:09:00,
2013-06-07 07:24:00,77.0,74.0,29.87,SW,221,3.0,5.0,90,0.00,,,0.00,weatherlink.com 1.10,2013-06-07 11:24:00,
2013-06-07 07:39:00,77.2,74.0,29.87,SW,218,1.0,5.0,89,0.00,,,0.00,weatherlink.com 1.10,2013-06-07 11:39:00,
2013-06-07 07:54:00,78.4,75.0,29.87,West,267,1.0,4.0,88,0.00,,,0.00,weatherlink.com 1.10,2013-06-07 11:54:00,
2013-06-07 08:09:00,79.3,75.0,29.88,SSW,208,2.0,7.0,87,0.00,,,0.00,weatherlink.com 1.10,2013-06-07 12:09:00,
2013-06-07 08:24:00,80.1,75.0,29.89,SSW,207,3.0,8.0,84,0.00,,,0.00,weatherlink.com 1.10,2013-06-07 12:24:00,
2013-06-07 08:39:00,80.7,75.0,29.89,SSW,212,4.0,7.0,83,0.00,,,0.00,weatherlink.com 1.10,2013-06-07 12:39:00,
2013-06-07 08:54:00,81.0,75.0,29.90,SW,217,4.0,7.0,83,0.00,,,0.00,weatherlink.com 1.10,2013-06-07 12:54:00,
2013-06-07 09:09:00,81.0,76.0,29.90,SW,235,2.0,8.0,84,0.00,,,0.00,weatherlink.com 1.10,2013-06-07 13:09:00,
2013-06-07 09:24:00,81.0,76.0,29.91,WSW,245,5.0,10.0,84,0.00,,,0.00,weatherlink.com 1.10,2013-06-07 13:24:00,
2013-06-07 09:39:00,81.0,76.0,29.91,WSW,243,3.0,7.0,84,0.00,,,0.00,weatherlink.com 1.10,2013-06-07 13:39:00,
2013-06-07 09:54:00,80.7,76.0,29.92,SW,231,3.0,8.0,84,0.00,,,0.00,weatherlink.com 1.10,2013-06-07 13:54:00,
2013-06-07 10:09:00,81.2,76.0,29.92,SW,214,4.0,7.0,84,0.00,,,0.00,weatherlink.com 1.10,2013-06-07 14:09:00,
2013-06-07 10:24:00,82.5,77.0,29.91,West,274,2.0,7.0,82,0.00,,,0.00,weatherlink.com 1.10,2013-06-07 14:24:00,
2013-06-07 10:39:00,83.2,76.0,29.92,WSW,238,3.0,7.0,79,0.00,,,0.00,weatherlink.com 1.10,2013-06-07 14:39:00,
2013-06-07 10:54:00,83.2,76.0,29.92,SW,217,1.0,6.0,80,0.00,,,0.00,weatherlink.com 1.10,2013-06-07 14:54:00,
2013-06-07 11:10:00,83.9,77.0,29.92,West,269,3.0,7.0,80,0.00,,,0.00,weatherlink.com 1.10,2013-06-07 15:10:00,
2013-06-07 11:25:00,84.5,77.0,29.93,SW,218,7.0,9.0,77,0.00,,,0.00,weatherlink.com 1.10,2013-06-07 15:25:00,
2013-06-07 11:40:00,83.7,77.0,29.94,SW,231,7.0,11.0,79,0.00,,,0.00,weatherlink.com 1.10,2013-06-07 15:40:00,
2013-06-07 11:55:00,84.7,77.0,29.93,West,266,4.0,6.0,77,0.00,,,0.00,weatherlink.com 1.10,2013-06-07 15:55:00,
2013-06-07 12:10:00,84.9,77.0,29.94,SW,221,5.0,8.0,78,0.00,,,0.00,weatherlink.com 1.10,2013-06-07 16:10:00,
2013-06-07 12:25:00,84.0,76.0,29.94,WSW,242,2.0,7.0,77,0.00,,,0.00,weatherlink.com 1.10,2013-06-07 16:25:00,
2013-06-07 12:40:00,83.0,76.0,29.93,NW,307,7.0,8.0,78,0.00,,,0.00,weatherlink.com 1.10,2013-06-07 16:40:00,
2013-06-07 12:55:00,83.4,76.0,29.93,WSW,250,2.0,7.0,78,0.00,,,0.00,weatherlink.com 1.10,2013-06-07 16:55:00,
2013-06-07 13:10:00,82.9,76.0,29.92,WNW,288,1.0,7.0,79,0.00,,,0.00,weatherlink.com 1.10,2013-06-07 17:10:00,
2013-06-07 13:25:00,83.6,75.0,29.92,WNW,297,1.0,6.0,76,0.00,,,0.00,weatherlink.com 1.10,2013-06-07 17:25:00,
2013-06-07 13:40:00,83.6,75.0,29.92,WNW,302,3.0,7.0,75,0.00,,,0.00,weatherlink.com 1.10,2013-06-07 17:40:00,
2013-06-07 13:55:00,83.1,75.0,29.92,SW,215,2.0,5.0,76,0.00,,,0.00,weatherlink.com 1.10,2013-06-07 17:55:00,
2013-06-07 14:10:00,83.4,75.0,29.91,West,271,1.0,6.0,76,0.00,,,0.00,weatherlink.com 1.10,2013-06-07 18:10:00,
2013-06-07 14:25:00,84.1,76.0,29.91,NNW,330,3.0,5.0,76,0.00,,,0.00,weatherlink.com 1.10,2013-06-07 18:25:00,
2013-06-07 14:55:00,83.0,75.0,29.91,SSW,207,3.0,6.0,77,0.00,,,0.00,weatherlink.com 1.10,2013-06-07 18:55:00,
2013-06-07 15:25:00,82.4,76.0,29.92,WSW,238,3.0,6.0,80,0.00,,,0.00,weatherlink.com 1.10,2013-06-07 19:25:00,
2013-06-07 15:40:00,82.3,76.0,29.91,West,281,1.0,7.0,80,0.00,,,0.00,weatherlink.com 1.10,2013-06-07 19:40:00,
2013-06-07 15:55:00,82.6,76.0,29.92,WSW,240,2.0,7.0,80,0.00,,,0.00,weatherlink.com 1.10,2013-06-07 19:55:00,
2013-06-07 16:10:00,82.8,76.0,29.91,SW,231,1.0,8.0,79,0.00,,,0.00,weatherlink.com 1.10,2013-06-07 20:10:00,
2013-06-07 17:10:00,82.6,77.0,29.91,SW,224,7.0,9.0,82,0.00,,,0.00,weatherlink.com 1.10,2013-06-07 21:10:00,
2013-06-07 17:40:00,82.0,77.0,29.91,SW,235,2.0,8.0,84,0.00,,,0.00,weatherlink.com 1.10,2013-06-07 21:40:00,
2013-06-07 17:55:00,81.5,76.0,29.90,WSW,242,1.0,7.0,84,0.00,,,0.00,weatherlink.com 1.10,2013-06-07 21:55:00,
2013-06-07 18:10:00,80.9,76.0,29.90,SW,228,6.0,11.0,84,0.00,,,0.00,weatherlink.com 1.10,2013-06-07 22:10:00,
2013-06-07 18:25:00,80.2,76.0,29.91,WNW,287,3.0,8.0,86,0.00,,,0.00,weatherlink.com 1.10,2013-06-07 22:25:00,
2013-06-07 18:40:00,80.0,76.0,29.91,WSW,248,1.0,6.0,87,0.00,,,0.00,weatherlink.com 1.10,2013-06-07 22:40:00,
2013-06-07 18:55:00,80.1,76.0,29.91,WSW,255,1.0,6.0,87,0.00,,,0.00,weatherlink.com 1.10,2013-06-07 22:55:00,
2013-06-07 19:10:00,80.3,76.0,29.91,WSW,239,2.0,5.0,86,0.00,,,0.00,weatherlink.com 1.10,2013-06-07 23:10:00,
2013-06-07 19:25:00,80.3,76.0,29.91,WSW,252,2.0,5.0,85,0.00,,,0.00,weatherlink.com 1.10,2013-06-07 23:25:00,
2013-06-07 19:40:00,79.9,75.0,29.91,SW,221,3.0,3.0,86,0.00,,,0.00,weatherlink.com 1.10,2013-06-07 23:40:00,
2013-06-07 19:55:00,79.6,75.0,29.91,SW,231,1.0,5.0,85,0.00,,,0.00,weatherlink.com 1.10,2013-06-07 23:55:00,
2013-06-07 20:10:00,79.6,74.0,29.92,SW,224,4.0,5.0,84,0.00,,,0.00,weatherlink.com 1.10,2013-06-08 00:10:00,
2013-06-07 20:40:00,78.9,74.0,29.93,WSW,249,3.0,4.0,85,0.00,,,0.00,weatherlink.com 1.10,2013-06-08 00:40:00,
2013-06-07 20:55:00,78.7,74.0,29.93,SW,214,1.0,4.0,86,0.00,,,0.00,weatherlink.com 1.10,2013-06-08 00:55:00,
2013-06-07 21:10:00,78.5,74.0,29.93,SW,214,1.0,3.0,87,0.00,,,0.00,weatherlink.com 1.10,2013-06-08 01:10:00,
2013-06-07 21:25:00,78.3,74.0,29.93,SSE,167,2.0,4.0,87,0.00,,,0.00,weatherlink.com 1.10,2013-06-08 01:25:00,
2013-06-07 21:40:00,78.2,74.0,29.93,SW,215,2.0,4.0,87,0.00,,,0.00,weatherlink.com 1.10,2013-06-08 01:40:00,
2013-06-07 21:55:00,78.1,74.0,29.94,SW,215,2.0,4.0,87,0.00,,,0.00,weatherlink.com 1.10,2013-06-08 01:55:00,
2013-06-07 22:10:00,78.1,74.0,29.94,SSW,204,1.0,4.0,88,0.00,,,0.00,weatherlink.com 1.10,2013-06-08 02:10:00,
2013-06-07 22:25:00,78.1,74.0,29.95,South,184,2.0,4.0,87,0.00,,,0.00,weatherlink.com 1.10,2013-06-08 02:25:00,
2013-06-07 22:40:00,78.1,74.0,29.95,SW,214,1.0,5.0,87,0.00,,,0.00,weatherlink.com 1.10,2013-06-08 02:40:00,
2013-06-07 22:56:00,78.2,74.0,29.95,SW,224,2.0,5.0,87,0.00,,,0.00,weatherlink.com 1.10,2013-06-08 02:56:00,
2013-06-07 23:11:00,78.0,74.0,29.96,SW,222,1.0,4.0,88,0.00,,,0.00,weatherlink.com 1.10,2013-06-08 03:11:00,
2013-06-07 23:26:00,78.0,74.0,29.96,South,174,3.0,4.0,88,0.00,,,0.00,weatherlink.com 1.10,2013-06-08 03:26:00,
2013-06-07 23:41:00,78.3,74.0,29.96,SW,231,5.0,6.0,87,0.00,,,0.00,weatherlink.com 1.10,2013-06-08 03:41:00,